STARLINK-32909, 62894

Orbit data source: Space-Track

STARLINK-32909, 62894 is a payload satellite owned by SpaceX/Seattle (US) in LEO that was launched on Tue, 04 Feb 2025 UTC via an FALCON 9 launch vehicle from the Air Force Eastern Test Range (AFETR). Payload-class satellites include a variety of spacecraft equipped with specific instruments for various scientific and technological missions. These include communications satellites like Starlink; space stations such as the ISS; scientific satellites like the Hubble; Earth observation satellites from companies like Planet Labs, Umbra, and HawkEye 360; GPS; miniature CubeSats for education and research; and military/defense satellites.

Loading next visibility...
Identifier
62894, 2025-024R
Orbit
LEO
Country
Flag of USUS
Related business
Manufacturer
SpaceX/Seattle
Mission
Operational Commercial Communications
Bus & Motor
STARLINK V2M, Unknown motor
Mass
730 kg wet, ~700 kg dry
Launch date (UTC)
2025-02-04 (1 year ago)
Launch vehicle
FALCON 9
Launch site
Air Force Eastern Test Range (AFETR)
Object type
Payload
Rocket body
Debris
Shape & HBR
Box + 2 Pan, 17.7 m
Radar Cross Section
33.884 m², Large (>1 m²)

Expand to show TLE details & history
Last TLE update: 19 hours ago

TLE from 19 hours ago
0 STARLINK-32909
1 62894U 25024R   26129.63492210  .00010183  00000-0  37916-3 0  9991
2 62894  43.0002 341.4453 0000821 300.3652  59.7118 15.27570278 71580
Epoch: 2026-05-09T15:14Z
TLE epoch observation values (Epoch: 2026-05-09T15:14:17.269Z)
Latitude
-0.00004°
Longitude
-114.57623°
Altitude
482.57 km
Speed
7.626 km/s
True Right ascension
22h 45m 46s
True Declination
0° 00' 00"
Sunlit
Object was in daylight at epoch
Visualization orbit readout
Latitude
Unknown
Longitude
Unknown
Altitude
Unknown
Speed
Unknown
Apparent Right ascension
Unknown
Apparent Declination
Unknown
Sunlit
N/A
Visualization observer readout
Local Sidereal Time
18:45:09
Azimuth
Unknown
Elevation
Unknown
Doppler factor
Unknown
Orbital elements
Apogee altitude
485.587 km
Perigee altitude
484.46 km
Semi-major axis
6,863.16 km
Eccentricity
0.00008
Inclination
43.0002°
RAAN
341.4453°
Arg. of periapsis
300.3652°
True anomaly
59.71992°
Mean anomaly
59.7118°
Eccentric anomaly
59.71586°
Mean motion
3.81731 °/min
Orbital period
94.31 mins
BSTAR
0.00037916
Loading maneuver chart data...
Computing Atmospheric mass density...
Loading historical data...
Loading historical data...
Loading historical data...
Loading historical data...
Loading historical data...
Loading historical data...
Loading historical data...

Documentation

Showing up to 5 results
|